Location: Bannatyne
(13.0833°N, 59.5333°W)
Time: 18:36:17
(UTC+00:00)

deb Explorer IX - Pass Details

Date: 28 January 2020
Orbit: 549 x 1099 km, 38.8° (Epoch: 25 February)

Event Time Altitude Azimuth Distance (km) Brightness Sun altitude
Rises 08:43:21 0° 294° (WNW) 3,764 - -24.6°
Reaches altitude 10° 08:46:28 10° 285° (WNW) 2,740 - -23.8°
Exits shadow 08:51:40 31° 234° (SW) 1,541 ? -22.6°
Maximum altitude 08:52:11 31° 225° (SW) 1,516 ? -22.5°
Drops below altitude 10° 08:57:14 10° 163° (SSE) 2,404 ? -21.3°
Sets 08:59:49 0° 153° (SSE) 3,240 ? -20.7°
